カタログに戻る

ONEWEB-0362

運用中通信PO
NORAD 49288·PAYLOAD·🇬🇧 United Kingdom

打ち上げ Oct 14, 2021 から Vostochny Cosmodrome

Loading…

次のパス (今後24時間)

TLE

最新Source: CelesTrak SupGP

元期: Sep 14, 2026, 19:35 UTC

1 49288C 21090K   26257.81613843 -.00000587  00000+0 -14671-2 0  2578
2 49288  87.9103 287.1213 0001722  91.2587  20.2495 13.19723719    15

AllMySatでONEWEB-0362をリアルタイム追跡

Download on the App Store